Temperature
23 23 24 24 24 24 22 20 19 19 18 18 18 18 19 19 19 18 17 17 16 15 15 14 13 13 12 12 11 11 11 10 10 10 9 9 9 9 9 8 8 8 8 8
23 24 24 24 24 24 24 22 21 19 19 19 20 20 19 18 18 17 17 16 16 15 14 13 13 12 12 11 11 11 10 10 10 9 9 9 9 8 8 8 8 8 8 8
21 22 23 22 23 24 23 23 21 20 19 19 18 18 18 18 18 17 17 16 15 14 14 13 12 12 11 11 11 10 10 10 9 9 9 9 8 8 8 8 8 8 8 8
19 21 22 21 23 23 22 21 20 19 19 18 18 18 18 18 18 17 16 16 15 14 13 13 12 12 11 11 10 10 10 9 9 9 9 8 8 8 8 8 8 8 8 8
19 20 21 22 23 23 21 20 20 19 18 18 18 17 17 18 17 17 16 15 15 14 13 12 12 11 11 11 10 10 10 9 9 9 8 8 8 8 8 8 8 8 8 8
19 20 20 21 23 24 20 19 20 20 19 19 18 15 16 18 17 17 16 15 14 14 13 12 12 11 11 10 10 10 9 9 9 8 8 8 8 8 8 8 8 8 8 8
19 19 20 21 24 24 21 19 21 22 21 21 18 17 19 18 17 17 16 15 14 13 13 12 11 11 10 10 10 9 9 9 9 9 8 8 8 8 8 8 8 8 8 8
18 19 20 22 23 21 21 22 22 22 22 21 21 20 19 18 17 17 16 15 14 13 13 12 11 11 10 10 10 9 9 9 9 9 8 8 8 8 8 8 8 7 7 7
18 19 22 25 25 25 25 23 23 22 22 21 20 20 19 18 17 17 16 15 14 13 12 12 11 10 10 10 10 9 9 9 9 9 9 8 8 8 8 8 7 7 7 7
20 20 23 25 25 25 25 24 23 23 22 21 21 20 19 18 18 17 16 15 14 13 12 12 11 10 10 10 9 9 9 9 9 9 9 9 8 8 8 8 7 7 7 7
20 21 23 25 25 25 24 24 23 23 22 22 21 20 19 19 18 17 16 15 14 13 12 12 11 10 10 10 9 9 9 9 9 9 9 9 9 8 8 8 7 7 7 7
20 22 20 24 25 25 24 24 23 23 22 21 21 20 20 19 18 17 16 15 14 13 12 12 11 10 10 10 9 9 9 9 9 9 9 9 9 9 8 8 8 7 7 7
24 25 25 25 25 25 24 24 23 23 22 22 21 20 20 19 18 17 16 15 14 13 12 11 11 10 10 10 10 9 9 9 9 9 9 9 9 8 8 8 8 8 7 7
24 25 24 24 24 24 24 24 23 23 22 22 21 20 19 18 18 17 16 15 14 13 12 11 11 10 10 10 10 10 9 9 9 9 9 9 9 8 8 8 8 8 8 7
23 23 23 23 24 24 23 23 23 22 22 21 21 20 19 18 18 17 16 15 14 13 12 12 11 11 10 10 10 10 10 10 9 9 9 9 9 9 9 8 8 8 8 7
22 22 22 22 22 22 22 22 22 22 21 21 20 20 19 18 17 17 16 15 14 13 13 12 11 11 10 10 10 10 10 10 9 9 9 9 9 9 9 8 8 8 8 8
19 18 18 19 19 20 21 21 21 21 21 20 20 19 19 18 17 16 16 15 14 13 13 12 11 11 10 10 10 10 10 10 10 10 9 9 9 9 9 8 8 8 8 8
16 16 17 17 18 18 19 20 20 20 20 20 19 19 18 18 17 17 16 15 14 14 13 12 11 11 10 10 10 10 9 10 10 10 9 9 9 9 9 9 8 8 8 8
15 15 15 16 16 17 17 18 18 19 19 19 18 18 18 17 17 16 16 15 14 14 13 12 11 11 10 10 10 10 9 9 10 10 9 9 9 9 9 9 8 8 8 8
14 14 14 15 15 15 16 16 17 17 17 17 17 17 17 17 16 16 15 15 14 14 13 12 11 11 11 10 10 10 9 9 9 9 10 10 9 9 9 9 9 8 8 8
13 13 13 14 14 14 15 15 15 16 16 16 16 16 16 16 16 15 15 15 14 13 13 12 11 11 11 10 10 9 9 9 9 9 9 9 9 9 9 9 9 9 8 8
12 12 12 13 13 13 13 14 14 14 14 15 15 15 15 15 15 15 15 14 14 13 12 12 11 11 10 10 10 9 9 9 9 9 9 9 9 9 9 9 9 9 9 8
12 12 12 12 12 12 12 13 13 13 13 13 13 14 14 14 14 14 14 14 13 13 12 11 11 11 10 10 9 9 9 9 9 9 9 9 9 9 9 9 9 9 9 8
11 11 11 12 12 12 12 12 12 12 12 13 13 13 13 13 14 14 14 13 13 12 11 11 11 10 10 9 9 9 8 8 9 9 9 9 9 9 9 9 9 9 9 9
11 11 11 11 11 11 11 11 11 11 12 12 12 12 13 13 13 13 13 12 12 11 11 11 10 10 9 9 8 8 8 8 8 8 9 9 9 9 9 9 9 9 9 9
10 10 10 10 10 10 10 10 10 10 10 11 11 11 12 12 12 12 12 11 11 10 10 10 9 9 9 8 8 8 8 8 8 8 8 8 9 9 9 9 9 9 9 9
10 10 10 10 10 10 10 10 10 9 10 10 10 10 11 11 11 11 11 11 10 10 9 9 9 8 8 8 8 8 8 8 8 8 8 8 8 8 9 9 9 9 9 9
Wind_Speed
4 5 3 4 2 2 5 8 8 8 10 10 10 10 10 9 8 7 6 5 4 3 3 4 5 5 5 5 5 5 5 7 8 8 8 8 8 9 9 9 10 9 9 9
5 6 6 5 2 2 3 5 8 9 6 7 7 6 6 7 8 7 5 4 3 2 3 4 5 5 5 5 6 5 6 7 8 8 8 8 9 9 9 9 9 9 9 10
4 7 5 4 3 2 3 4 8 7 7 6 6 7 7 7 7 7 6 4 3 3 4 5 5 5 5 6 6 6 7 8 8 8 8 9 10 9 9 9 9 9 9 9
1 5 3 7 4 5 7 4 6 8 7 8 8 7 6 8 8 7 6 5 4 4 4 4 4 4 5 5 6 7 7 8 8 8 9 9 9 10 10 9 9 9 10 10
3 1 5 6 3 4 7 3 4 9 8 8 7 4 2 6 7 8 7 5 4 4 3 3 4 5 5 6 7 7 8 8 9 9 10 10 10 11 10 9 9 9 9 10
4 3 5 7 4 6 9 2 5 9 9 8 8 2 5 6 7 7 6 4 3 3 2 3 5 5 5 7 7 8 8 8 9 9 10 11 11 11 10 9 10 9 9 9
5 5 7 8 5 5 3 8 9 9 9 9 8 7 6 8 8 7 6 5 3 2 2 4 5 4 5 7 8 8 8 8 9 9 10 10 9 9 9 9 9 9 9 9
4 3 7 8 4 7 9 7 9 10 10 9 9 7 8 9 9 7 5 3 3 1 3 5 5 4 6 7 8 7 8 8 9 10 10 10 9 10 9 8 8 8 8 8
7 8 9 8 10 9 9 9 9 10 10 11 10 9 9 9 8 6 5 4 3 2 4 5 5 4 6 7 7 7 8 9 10 11 10 9 9 10 9 8 6 6 6 6
3 7 7 6 6 7 9 10 10 10 11 11 10 10 9 8 7 6 4 3 3 2 4 6 6 6 6 7 6 7 8 9 9 10 11 10 8 7 7 7 7 6 6 6
3 6 3 3 6 9 8 8 10 10 10 12 12 10 10 8 8 7 5 4 3 3 5 6 6 7 7 6 5 7 8 9 9 9 9 10 9 7 7 7 7 6 6 5
6 8 6 7 7 8 10 11 12 12 10 10 11 11 10 9 8 7 6 4 4 4 5 6 6 6 6 5 5 6 8 8 8 8 8 8 8 9 9 9 10 9 9 7
8 7 7 6 5 6 10 12 13 13 13 11 10 10 10 8 8 7 6 5 5 5 5 5 5 6 6 5 6 7 8 9 8 8 8 8 7 7 9 9 8 6 7 8
5 2 1 3 4 5 6 9 10 10 11 12 11 9 9 8 7 7 7 7 6 4 4 4 5 6 6 5 6 8 8 9 9 8 8 8 7 7 6 6 7 5 5 7
2 1 2 2 2 1 2 4 6 7 8 9 9 10 10 10 9 8 7 6 4 3 4 4 5 6 5 5 7 8 8 7 7 8 7 7 7 6 6 6 6 5 4 4
5 7 8 8 6 4 2 2 5 7 9 9 9 10 11 10 8 7 7 6 4 4 5 4 5 5 5 6 6 6 7 12 11 8 7 7 6 6 6 5 6 5 5 4
14 13 11 11 10 8 5 2 3 6 7 8 10 10 9 9 8 7 7 7 6 5 5 4 4 4 5 5 5 5 7 9 12 9 7 6 6 6 6 5 5 5 5 4
14 12 11 11 11 11 11 10 6 1 3 5 8 9 10 10 10 9 8 7 5 3 4 5 4 4 4 4 4 5 6 7 7 8 7 6 6 6 5 5 5 6 5 4
17 17 17 17 15 13 12 11 10 6 3 3 6 8 9 10 10 9 8 7 5 5 6 6 4 2 3 4 5 5 6 7 8 7 6 7 7 6 5 5 5 5 5 4
16 15 16 16 16 14 14 12 10 7 5 1 3 5 7 8 8 8 8 7 7 6 5 5 3 2 2 4 6 5 6 7 7 7 5 5 5 6 6 6 5 5 5 4
13 13 14 14 13 13 12 12 10 8 7 5 6 7 9 9 8 8 7 6 7 7 6 4 3 2 2 3 6 5 6 6 6 5 5 5 5 5 6 6 6 5 5 4
10 11 12 12 12 12 12 11 11 11 10 9 8 8 7 8 8 8 8 7 7 9 6 4 4 3 2 3 3 4 5 5 5 5 5 5 5 5 6 6 5 5 5 4
9 9 11 11 11 12 12 11 11 10 10 10 10 9 9 9 8 7 8 6 6 9 6 4 5 4 2 2 3 3 4 4 4 5 5 5 4 4 5 6 5 5 5 5
9 10 11 11 11 10 11 12 11 10 10 10 9 9 8 7 6 7 5 8 11 10 6 6 7 4 1 1 2 2 3 3 4 4 5 5 4 4 4 5 5 5 5 5
11 10 10 10 9 8 8 9 9 9 10 9 9 9 7 5 4 4 4 7 10 9 4 6 7 4 1 0 0 1 1 2 4 4 5 5 5 4 4 4 5 5 5 5
10 9 8 7 6 5 6 6 6 7 8 8 9 8 7 5 2 2 4 6 8 8 5 3 3 2 1 1 2 2 2 3 4 4 5 5 5 5 5 5 6 5 5 5
8 7 5 6 5 5 5 6 6 7 8 8 9 9 7 5 2 2 5 5 6 5 4 3 3 3 3 3 3 3 3 3 4 4 4 4 5 5 5 6 6 6 6 6
Wind_Direction
253 279 317 307 291 162 147 167 163 181 174 196 193 188 189 183 167 151 156 162 167 196 245 263 271 275 274 272 278 282 284 284 282 281 281 282 282 281 277 273 273 265 264 263
326 315 326 317 331 139 129 128 131 135 174 203 187 170 163 159 150 152 162 164 171 209 269 280 281 277 276 277 282 282 283 284 286 289 290 289 287 284 281 277 273 270 266 265
293 315 1 322 260 145 114 139 150 164 185 172 158 166 166 162 158 163 166 173 200 247 266 275 274 269 274 276 284 291 289 290 292 292 291 289 292 292 284 280 276 273 269 265
205 11 325 256 259 124 100 62 121 131 149 161 168 169 178 176 167 170 175 190 229 253 268 274 273 278 278 285 295 297 296 296 298 298 296 293 291 287 284 280 276 273 272 268
133 214 278 289 286 143 119 74 140 135 146 156 151 110 261 205 178 180 187 199 219 234 244 267 283 287 297 303 304 304 301 300 301 301 300 299 296 292 288 285 282 276 273 270
155 183 240 250 247 138 103 139 203 157 158 157 140 120 254 214 180 182 188 197 208 233 257 292 288 294 306 304 304 299 297 297 299 299 299 299 294 290 288 283 280 282 281 276
188 212 251 237 221 122 139 226 202 174 167 163 173 198 208 181 183 184 185 189 185 200 278 281 286 299 302 301 293 288 293 299 302 300 298 295 291 289 290 288 287 285 285 285
168 188 250 237 183 174 209 191 177 173 173 171 184 184 168 171 179 180 179 188 189 226 281 285 289 296 298 294 286 290 297 301 302 300 302 306 298 297 296 292 291 291 291 294
184 210 230 216 202 204 167 169 180 175 178 166 165 171 171 176 179 185 186 205 218 233 282 294 292 283 286 286 290 298 305 304 303 303 302 297 294 296 301 298 290 291 293 295
239 265 252 228 206 184 175 177 178 172 170 165 166 171 172 175 184 191 202 215 220 245 286 293 290 287 275 283 292 301 304 304 304 305 306 305 300 294 295 296 292 290 290 292
293 286 307 257 209 193 183 168 165 169 172 170 164 169 173 179 188 194 202 213 212 232 264 277 286 291 291 292 299 305 304 303 305 303 302 305 302 295 291 282 269 269 275 276
235 238 207 237 235 187 175 181 179 174 177 175 169 172 171 177 183 185 194 202 216 242 260 274 285 291 295 292 297 304 307 308 305 306 306 303 305 310 301 290 288 267 254 258
220 227 205 230 229 194 188 191 185 179 178 180 179 171 166 171 178 179 186 197 213 232 250 268 283 291 293 292 301 302 300 302 303 302 304 305 306 307 312 315 306 283 267 262
230 178 264 273 246 216 192 191 185 181 180 176 172 167 162 162 167 177 191 203 208 222 250 265 279 287 285 295 304 303 302 303 304 299 301 302 302 300 298 303 311 310 285 265
286 142 204 271 318 272 179 146 150 176 182 179 170 165 163 166 175 188 193 187 186 222 257 268 279 284 287 300 305 303 304 303 304 303 302 301 303 304 302 303 302 299 297 291
28 29 30 30 18 1 32 130 172 193 189 183 178 177 173 170 172 177 180 174 179 234 254 259 267 270 285 302 308 307 306 308 313 306 305 308 310 310 309 307 309 308 297 285
48 31 20 17 12 10 2 314 214 198 186 182 183 172 157 153 161 178 190 193 196 218 228 234 247 263 290 300 304 303 306 311 314 313 306 304 306 307 306 306 307 308 300 283
45 40 36 30 20 12 7 5 2 24 171 178 157 152 158 168 183 195 200 199 206 231 230 220 222 263 295 299 300 300 303 304 305 303 304 307 309 306 305 307 309 310 306 304
34 29 25 23 17 11 7 6 5 5 16 123 148 172 185 190 192 194 189 190 211 237 237 222 232 256 290 299 317 304 304 305 306 305 304 313 321 321 318 315 317 314 312 309
26 21 16 13 11 7 359 353 355 357 347 301 195 198 209 212 202 194 190 202 219 216 207 207 218 234 266 300 322 303 301 302 306 309 311 317 320 323 327 327 327 322 320 318
13 7 3 358 353 350 344 339 336 322 302 275 242 231 230 228 213 197 193 220 229 199 192 196 184 195 250 302 315 303 301 307 313 313 316 319 320 324 329 333 336 332 330 330
356 350 344 339 336 331 326 323 320 313 304 291 275 260 252 245 231 220 216 217 206 183 178 176 177 202 253 313 306 305 310 316 323 325 326 327 328 329 330 335 340 344 346 348
334 328 323 319 315 309 310 310 309 308 301 291 280 267 257 250 235 222 235 223 181 176 174 180 187 203 267 313 300 306 317 328 334 335 335 331 329 331 334 339 343 350 352 351
318 313 309 307 310 313 312 311 311 311 306 299 288 278 270 268 260 236 217 181 175 174 178 183 187 203 244 268 292 310 331 342 342 343 345 343 344 351 352 350 351 351 352 355
307 306 308 314 318 314 310 315 322 328 330 326 317 310 302 281 256 232 183 171 169 163 166 185 194 198 191 225 2 8 10 6 359 353 356 353 353 358 357 352 356 359 1 359
299 300 298 298 301 306 318 328 329 327 330 331 326 322 322 319 298 164 155 158 159 158 153 161 182 178 136 105 85 69 53 30 18 9 359 357 358 2 0 3 7 7 8 7
296 301 306 316 320 326 331 333 332 329 326 325 321 315 315 313 300 162 151 152 155 150 146 148 147 140 124 102 89 70 57 43 27 13 4 2 3 3 4 13 17 16 18 19
Height
1499 1494 1491 1491 1490 1490 1496 1503 1513 1512 1513 1510 1507 1506 1506 1506 1506 1507 1506 1506 1504 1503 1501 1498 1496 1493 1491 1488 1485 1482 1478 1475 1471 1467 1464 1460 1456 1453 1450 1447 1444 1441 1439 1436
1500 1492 1491 1492 1487 1487 1489 1493 1500 1506 1508 1502 1502 1503 1504 1504 1504 1504 1503 1502 1501 1499 1497 1495 1492 1489 1487 1484 1481 1477 1473 1470 1466 1462 1458 1454 1450 1447 1443 1440 1437 1435 1432 1429
1510 1499 1496 1502 1489 1487 1489 1489 1494 1503 1503 1499 1502 1502 1501 1501 1501 1501 1500 1499 1497 1496 1493 1491 1488 1486 1483 1479 1476 1473 1469 1465 1461 1457 1453 1449 1444 1440 1437 1434 1431 1428 1425 1422
1511 1509 1514 1501 1481 1482 1488 1490 1489 1492 1495 1496 1497 1498 1499 1498 1498 1498 1497 1496 1494 1492 1490 1487 1485 1482 1479 1476 1472 1468 1465 1461 1456 1452 1447 1443 1439 1435 1431 1428 1424 1421 1418 1415
1513 1515 1509 1493 1483 1483 1490 1496 1491 1492 1494 1495 1496 1497 1497 1496 1495 1495 1494 1492 1491 1489 1487 1484 1481 1478 1475 1472 1468 1464 1460 1456 1452 1447 1442 1437 1433 1429 1425 1422 1418 1414 1411 1408
1508 1513 1515 1497 1480 1478 1486 1499 1490 1489 1490 1492 1493 1499 1496 1493 1492 1491 1490 1489 1487 1486 1483 1481 1478 1475 1471 1468 1464 1460 1456 1452 1447 1442 1437 1432 1428 1424 1420 1416 1412 1409 1405 1402
1505 1508 1500 1482 1476 1478 1497 1495 1484 1484 1485 1486 1488 1490 1489 1489 1489 1488 1487 1486 1484 1482 1480 1477 1474 1471 1468 1464 1461 1457 1452 1448 1443 1438 1433 1428 1424 1420 1416 1411 1407 1403 1399 1396
1503 1507 1500 1473 1474 1479 1480 1475 1477 1479 1481 1482 1483 1484 1485 1485 1486 1485 1484 1483 1481 1479 1477 1474 1471 1468 1464 1461 1457 1453 1449 1444 1439 1434 1429 1425 1420 1416 1411 1407 1402 1398 1394 1390
1489 1488 1471 1467 1467 1468 1468 1471 1473 1475 1477 1478 1479 1481 1481 1482 1482 1482 1481 1480 1478 1476 1474 1471 1468 1465 1461 1458 1454 1449 1445 1440 1435 1431 1426 1421 1417 1412 1407 1403 1398 1394 1390 1386
1475 1470 1465 1464 1464 1465 1465 1466 1468 1470 1472 1474 1475 1476 1477 1478 1479 1478 1478 1477 1475 1473 1470 1468 1465 1462 1458 1454 1450 1446 1442 1437 1432 1427 1422 1418 1413 1409 1404 1399 1394 1390 1386 1383
1474 1467 1463 1462 1461 1461 1462 1464 1465 1467 1468 1469 1470 1471 1473 1474 1474 1474 1474 1473 1471 1469 1467 1464 1461 1458 1455 1451 1447 1443 1438 1434 1429 1425 1420 1415 1411 1406 1401 1397 1392 1388 1384 1380
1472 1463 1462 1460 1459 1459 1459 1460 1461 1462 1464 1465 1465 1466 1467 1469 1470 1470 1470 1469 1468 1466 1463 1461 1458 1455 1452 1448 1444 1440 1435 1431 1426 1422 1417 1413 1408 1403 1399 1394 1390 1385 1382 1378
1460 1458 1458 1456 1456 1455 1455 1455 1456 1457 1458 1459 1460 1462 1463 1464 1465 1465 1465 1465 1463 1461 1459 1457 1454 1451 1448 1445 1441 1437 1432 1428 1424 1419 1415 1410 1406 1401 1396 1392 1388 1383 1379 1376
1456 1455 1455 1454 1453 1452 1451 1452 1452 1453 1454 1455 1456 1457 1458 1459 1460 1461 1461 1460 1459 1457 1455 1453 1450 1448 1444 1441 1438 1434 1430 1426 1422 1417 1413 1409 1404 1399 1394 1390 1385 1381 1378 1375
1453 1452 1452 1451 1449 1449 1449 1449 1449 1450 1451 1451 1452 1453 1454 1455 1456 1456 1457 1456 1455 1454 1451 1449 1447 1444 1441 1438 1434 1431 1427 1423 1419 1415 1411 1407 1403 1398 1393 1389 1384 1380 1377 1374
1451 1450 1449 1448 1447 1447 1446 1446 1446 1446 1446 1447 1448 1449 1450 1452 1453 1453 1453 1452 1451 1449 1447 1445 1443 1440 1437 1434 1431 1428 1424 1421 1417 1413 1409 1405 1401 1396 1392 1388 1384 1380 1376 1373
1450 1451 1450 1449 1448 1446 1445 1444 1443 1442 1442 1442 1443 1445 1447 1448 1449 1449 1448 1448 1446 1445 1443 1441 1439 1437 1434 1431 1428 1425 1422 1418 1415 1412 1408 1404 1400 1395 1391 1387 1383 1379 1376 1373
1457 1456 1455 1452 1450 1448 1445 1443 1442 1441 1440 1441 1441 1442 1443 1444 1444 1444 1444 1443 1442 1440 1439 1437 1435 1433 1430 1428 1425 1422 1419 1416 1413 1410 1406 1403 1399 1395 1390 1386 1382 1379 1376 1373
1459 1458 1457 1454 1453 1452 1449 1446 1445 1444 1443 1442 1442 1441 1440 1440 1439 1439 1438 1438 1437 1436 1435 1433 1431 1429 1427 1425 1422 1419 1417 1414 1411 1408 1405 1402 1398 1394 1390 1386 1382 1378 1375 1373
1462 1461 1459 1457 1454 1453 1452 1450 1448 1446 1446 1445 1443 1441 1439 1437 1436 1434 1433 1432 1432 1431 1430 1429 1427 1426 1423 1421 1419 1417 1415 1412 1409 1407 1404 1400 1397 1393 1390 1386 1381 1378 1375 1372
1465 1462 1460 1458 1456 1454 1453 1451 1448 1446 1444 1442 1440 1438 1435 1433 1431 1429 1428 1427 1427 1426 1425 1424 1423 1422 1420 1418 1416 1414 1412 1410 1407 1405 1402 1399 1396 1393 1390 1386 1382 1378 1375 1372
1466 1463 1461 1458 1455 1452 1450 1448 1445 1442 1440 1438 1435 1433 1430 1428 1425 1423 1422 1421 1421 1421 1420 1420 1419 1417 1416 1414 1413 1411 1409 1408 1406 1403 1401 1398 1396 1393 1390 1387 1383 1380 1376 1373
1465 1463 1459 1456 1453 1450 1446 1444 1441 1437 1435 1432 1429 1426 1424 1421 1419 1417 1415 1416 1416 1416 1415 1415 1414 1413 1412 1411 1410 1408 1407 1405 1404 1402 1400 1397 1395 1393 1390 1387 1384 1381 1378 1375
1462 1459 1456 1453 1449 1446 1442 1439 1436 1432 1429 1426 1423 1420 1417 1414 1411 1410 1409 1409 1410 1410 1410 1410 1410 1410 1409 1408 1407 1406 1404 1403 1402 1400 1398 1397 1395 1393 1390 1388 1385 1383 1380 1377
1458 1455 1451 1448 1445 1442 1439 1435 1431 1428 1424 1420 1417 1414 1411 1408 1406 1404 1403 1403 1404 1405 1406 1406 1406 1406 1406 1405 1404 1403 1402 1401 1400 1398 1397 1395 1394 1392 1390 1388 1386 1384 1381 1379
1453 1450 1448 1445 1442 1439 1436 1432 1428 1425 1421 1417 1413 1410 1407 1404 1401 1400 1399 1399 1400 1400 1401 1402 1403 1403 1402 1402 1401 1401 1400 1399 1397 1396 1395 1394 1393 1392 1390 1388 1387 1385 1383 1381
1449 1446 1444 1441 1438 1436 1432 1429 1426 1422 1418 1414 1410 1406 1403 1400 1398 1396 1395 1395 1395 1396 1397 1398 1398 1399 1399 1399 1398 1398 1397 1396 1395 1394 1394 1393 1392 1391 1390 1389 1387 1385 1384 1382